Regional Weather Roundup
Issued by NWS

Home | Current Version | Previous Version | Text Only | Print | Product List | Glossary On
Versions: 1 2 3 4 5 6 7 8 9 10 11 12 13 14 15 16 17 18 19 20 21 22 23 24 25 26 27 28 29 30 31 32 33 34 35 36 37 38 39 40 41 42 43 44 45 46 47 48 49 50
000
ASUS45 KSLC 061310
RWRUT

UTAH REGIONAL WEATHER ROUNDUP
NATIONAL WEATHER SERVICE SALT LAKE CITY UT
700 AM MDT WED MAY 06 2015

UTZ001>011-023>025-061400-

NORTHERN UTAH

CITY           SKY/WX    TMP DP  RH WIND       PRES   REMARKS
HILL AFB       CLOUDY    52  50  93 SE3       29.82S
LOGAN          FOG       44  43  96 CALM      29.82R VSB 1/4
OGDEN          MOCLDY    54  48  80 S7        29.81S
PROVO AIRPORT  NOT AVBL
SALT LAKE CITY CLOUDY    54  48  80 SE9       29.81S
VERNAL         LGT RAIN  51  48  89 CALM      29.80S
WENDOVER       PTCLDY    50  41  71 CALM      29.81S
HEBER CITY     CLOUDY    46  43  87 CALM      29.85S
WEST JORDAN    CLOUDY    52  50  93 SE8       29.83S

$$

UTZ012>022-026-027-061400-

SOUTHERN/CENTRAL UTAH

CITY           SKY/WX    TMP DP  RH WIND       PRES   REMARKS
BLANDING       MOCLDY    47  46  99 S3        29.96R
BRYCE CANYON   LGT RAIN  41  38  89 W8        29.96R
CEDAR CITY     CLOUDY    47  44  90 SE8       29.90F
DELTA          CLOUDY    49  47  91 CALM      29.84S
HANKSVILLE     PTCLDY    52  50  93 CALM      29.83R
MILFORD        LGT RAIN  49  46  90 S17       29.85S
MOAB/CYNLANDS  CLOUDY    53  52  96 CALM      29.78S
PRICE          CLOUDY    48  40  73 CALM      29.83S
ST GEORGE      CLOUDY    54  46  76 SE5       29.86S
KANAB          MOCLDY    46  46 100 CALM      29.94S

$$

REGIONAL REPORTS     COLORADO/ARIZONA

CITY           SKY/WX    TMP DP  RH WIND       PRES   REMARKS
CRAIG, CO      CLOUDY    48  45  89 SW7       29.80S
GRAND JUNCTION LGT RAIN  51  51 100 CALM      29.80R
RIFLE          LGT RAIN  48  45  89 CALM      29.82S
MONTROSE       LGT RAIN  50  46  86 SE8       29.86R
CORTEZ         CLOUDY    49  46  90 SW3       29.91R
PAGE, AZ       CLOUDY    55  46  71 SW5       29.86S
GRAND CANYON   MOCLDY    38  36  92 CALM      29.98S FOG
KINGMAN        CLEAR     50  36  58 S8        29.84F
FLAGSTAFF      PTCLDY    35  35 100 CALM      30.01S

$$

REGIONAL REPORTS    NEVADA/IDAHO/WYOMING

CITY           SKY/WX    TMP DP  RH WIND       PRES   REMARKS
LAS VEGAS, NV  PTCLDY    66  42  41 SW7       29.72S
ELY            CLOUDY    45  39  79 S12       29.88S
ELKO           MOCLDY    40  28  62 CALM      29.82S
POCATELLO, ID  PTCLDY    45  23  42 SW10      29.85S
BURLEY         CLOUDY    43  26  51 W7        29.83R
EVANSTON, WY   CLOUDY    42  41  96 SW9       29.87S
ROCK SPRINGS   CLOUDY    46  41  82 W15       29.81S
KEMMERER       CLOUDY    41  41 100 W14       29.85S

$$


USA.gov is the U.S. government's official web portal to all federal, state and local government web resources and services.